This is the latest recevied weather packets stored in our database for station/object p43g-13. If no packets are shown the sender has not sent any weather packets the latest 10 day(s).
| Time | Temp. | Humidity | Pressure | Rain* | Wind** | Luminosity | Snow |
|---|---|---|---|---|---|---|---|
| 1788098455 | 31.67° C | 72% | 1011.9 hPa | 0 mm | - | 724 W/m² | - |
| 1788098155 | 31.11° C | 71% | 1012 hPa | 0 mm | - | 667 W/m² | - |
| 1788097855 | 31.67° C | 71% | 1011.9 hPa | 0 mm | - | 312 W/m² | - |
| 1788097555 | 31.11° C | 73% | 1012.2 hPa | 0 mm | - | 640 W/m² | - |
| 1788097255 | 31.11° C | 73% | 1012 hPa | 0 mm | - | 622 W/m² | - |
| 1788096955 | 30.56° C | 73% | 1012.4 hPa | 0 mm | - | 586 W/m² | - |
| 1788096655 | 31.11° C | 71% | 1012.1 hPa | 0 mm | - | 549 W/m² | - |
| 1788096359 | 31.11° C | 71% | 1012 hPa | 0 mm | - | 527 W/m² | - |
| 1788096055 | 30.56° C | 71% | 1011.9 hPa | 0 mm | - | 506 W/m² | - |
| 1788095754 | 30.56° C | 73% | 1011.9 hPa | 0 mm | - | 482 W/m² | - |
| 1788095455 | 30.56° C | 72% | 1012.2 hPa | 0 mm | - | 456 W/m² | - |
| 1788095155 | 30.56° C | 73% | 1011.7 hPa | 0 mm | - | 432 W/m² | - |
| 1788094854 | 30.56° C | 73% | 1012 hPa | 0 mm | - | 408 W/m² | - |
| 1788094555 | 31.11° C | 73% | 1011.9 hPa | 0 mm | - | 419 W/m² | - |
| 1788094274 | 31.11° C | 73% | 1011.7 hPa | 0 mm | - | 249 W/m² | - |
| 1788093955 | 30.56° C | 73% | 1011.7 hPa | 0 mm | - | 348 W/m² | - |
| 1788093656 | 30.56° C | 74% | 1011.5 hPa | 0 mm | - | 316 W/m² | - |
| 1788093355 | 30° C | 74% | 1011.4 hPa | 0 mm | - | 259 W/m² | - |
| 1788093055 | 30° C | 75% | 1011.5 hPa | 0 mm | - | 272 W/m² | - |
| 1788092755 | 30° C | 75% | 1011.3 hPa | 0 mm | - | 245 W/m² | - |
| 1788092456 | 29.44° C | 77% | 1011.5 hPa | 0 mm | - | 223 W/m² | - |
| 1788092155 | 29.44° C | 76% | 1011.3 hPa | 0 mm | - | 205 W/m² | - |
| 1788091856 | 29.44° C | 77% | 1011.2 hPa | 0 mm | - | 194 W/m² | - |
| 1788091555 | 29.44° C | 78% | 1010.9 hPa | 0 mm | - | 147 W/m² | - |
| 1788091255 | 29.44° C | 77% | 1011.1 hPa | 0 mm | - | 152 W/m² | - |
* Rain latest hour (hover to see other rain measurements)
** Current wind speed in m/s (hover to see current wind gust speed)